[[{"header":{"parameterUnit":"m.s-1","parameterCategory":1,"la1":30.2991,"la2":30.254,"lo1":-89.0895,"lo2":-89.0444,"dy":0.0017,"dx":0.0017,"nx":28,"ny":28,"refTime":"2024-04-15T21:00:00:Z","depth":0,"parameterNumber":2,"parameterNumberName":"U-component_of_WINDS"},"data":[0,0,0,0,0,0,0,0,0,0,0,0,0,0,0,0,0,0,0,0,0,0,0,0,0,0,0,0,0,0,0,0,0,0,0,0,0,0,0,0,0,0,0,0,0,0,0,0,0,0,0,0,0,0,0,0,0,0,-2.4612,-2.4613,0,-2.4697,-2.4698,-2.4699,-2.4729,-2.4729,-2.4729,-2.4728,-2.4816,-2.4819,-2.4821,0,0,0,0,0,0,0,0,0,0,0,0,0,-2.4478,-2.448,-2.4612,-2.4613,-2.4614,-2.4697,-2.4698,-2.4699,-2.4729,-2.4729,-2.4729,-2.4728,-2.4815,-2.4818,-2.4822,0,0,0,0,0,0,0,0,0,0,0,0,0,-2.4547,-2.4481,-2.4612,-2.4639,-2.4642,-2.4697,-2.4698,-2.4699,-2.4729,-2.4729,-2.4728,-2.4728,-2.4814,-2.4818,-2.4822,-2.4856,0,0,-2.4834,-2.4836,0,0,0,0,0,0,0,0,-2.4543,-2.4552,-2.4634,-2.4637,-2.4641,-2.4702,-2.4683,-2.4752,-2.4729,-2.4696,-2.4728,-2.4728,-2.4779,-2.4786,-2.4803,-2.486,-2.4863,-2.4834,-2.4837,-2.4839,-2.484,0,0,0,0,0,0,0,-2.4538,-2.4548,-2.4646,-2.4635,-2.464,-2.4648,-2.4657,-2.4696,-2.4739,-2.4699,-2.4702,-2.4711,-2.4781,-2.4799,-2.4805,-2.4865,-2.4834,-2.4838,-2.484,-2.4842,-2.4955,-2.4955,0,0,0,0,0,0,-2.4529,-2.4544,-2.4643,-2.4648,-2.459,-2.4651,-2.4661,-2.4683,-2.4739,-2.4747,-2.4712,-2.4712,-2.4792,-2.48,-2.4808,-2.4851,-2.4839,-2.4842,-2.4844,-2.4954,-2.4955,-2.4955,0,0,0,0,0,0,-2.4526,-2.4537,-2.464,-2.4597,-2.4611,-2.4653,-2.4678,-2.4685,-2.4703,-2.4748,-2.4756,-2.4722,-2.4792,-2.4802,-2.4844,-2.4854,-2.4844,-2.4848,-2.4953,-2.4954,-2.4955,-2.4937,0,0,0,0,0,0,-2.4522,-2.4536,-2.4548,-2.4597,-2.4613,-2.4673,-2.4679,-2.4687,-2.471,-2.4711,-2.476,-2.4768,-2.4793,-2.4838,-2.4848,-2.486,-2.4851,-2.4952,-2.4954,-2.4955,-2.4937,-2.4937,-2.4937,0,0,0,0,0,-2.4517,-2.454,-2.4549,-2.4561,-2.4629,-2.4674,-2.4683,-2.4711,-2.471,-2.4724,-2.4753,-2.4766,-2.4852,-2.4842,-2.4853,-2.4866,-2.4952,-2.4953,-2.4955,-2.4937,-2.4937,-2.4937,0,0,0,0,0,0,-2.4492,-2.4547,-2.4557,-2.4597,-2.463,-2.4679,-2.4696,-2.471,-2.4745,-2.4745,-2.4779,-2.4789,-2.4828,-2.4852,-2.4839,-2.4902,-2.4903,-2.4906,-2.4885,-2.4886,-2.4886,-2.4879,-2.4854,0,0,0,0,0,-2.4491,-2.4522,-2.4569,-2.4599,-2.4616,-2.4653,-2.4673,-2.4692,-2.4728,-2.4742,-2.4775,-2.481,-2.4845,-2.4867,-2.4901,-2.4941,-2.4952,-2.4956,-2.4956,-2.4956,-2.4959,-2.4982,-2.4984,-2.496,-2.496,-2.496,0,0,-2.449,-2.4524,-2.4541,-2.4595,-2.4623,-2.4655,-2.4665,-2.4698,-2.4722,-2.4748,-2.4788,-2.4813,-2.4855,-2.4895,-2.4914,-2.4916,-2.4968,-2.4958,-2.4958,-2.4961,-2.4984,-2.4986,-2.4988,-2.4961,-2.4961,-2.4961,0,0,-2.4503,-2.4532,-2.4561,-2.4589,-2.4631,-2.4656,-2.4663,-2.4709,-2.4727,-2.4768,-2.4788,-2.4818,-2.4877,-2.4906,-2.4928,-2.4954,-2.4967,-2.4964,-2.4966,-2.4988,-2.499,-2.4992,-2.5,-2.5003,-2.4967,-2.4967,-2.4967,0,-2.4496,-2.4544,-2.4574,-2.4606,-2.4629,-2.4654,-2.4684,-2.471,-2.4761,-2.4777,-2.4778,-2.4854,-2.4883,-2.4931,-2.4937,-2.4954,-2.4964,-2.4958,-2.4987,-2.4989,-2.4991,-2.5,-2.5003,-2.4966,-2.4966,-2.4966,-2.4966,0,-2.4533,-2.4567,-2.4585,-2.4633,-2.4659,-2.469,-2.4725,-2.4747,-2.4764,-2.4789,-2.4831,-2.4868,-2.491,-2.4923,-2.494,-2.4974,-2.4973,-2.498,-2.4981,-2.4992,-2.5001,-2.5005,-2.4965,-2.4965,-2.4966,-2.4966,0,0,-2.4533,-2.4598,-2.4604,-2.4626,-2.4675,-2.4702,-2.4734,-2.4776,-2.4794,-2.483,-2.4858,-2.4908,-2.4915,-2.494,-2.4961,-2.498,-2.4998,-2.4985,-2.4987,-2.4986,-2.5037,-2.5031,-2.5034,-2.5008,-2.5009,-2.5009,-2.5034,0,-2.4552,-2.461,-2.4638,-2.4684,-2.4715,-2.474,-2.4768,-2.4801,-2.4826,-2.4857,-2.4884,-2.4919,-2.4926,-2.4941,-2.4962,-2.4991,-2.5009,-2.499,-2.5034,-2.5036,-2.5022,-2.5039,-2.5033,-2.5054,-2.5037,-2.5038,-2.5038,0,-2.4582,-2.4617,-2.4665,-2.4711,-2.4725,-2.475,-2.479,-2.4819,-2.4858,-2.4875,-2.4904,-2.4924,-2.4959,-2.4959,-2.5009,-2.4995,-2.5015,-2.5033,-2.5035,-2.5039,-2.5037,-2.5044,-2.5061,-2.5064,-2.5044,-2.5044,-2.5043,0,-2.4576,-2.4635,-2.4672,-2.469,-2.4745,-2.4762,-2.4785,-2.4824,-2.4847,-2.4883,-2.4898,-2.4938,-2.496,-2.499,-2.5021,-2.5018,-2.5068,-2.507,-2.5083,-2.5082,-2.5091,-2.509,-2.5112,-2.5106,-2.5106,-2.5105,-2.5105,0,-2.4594,-2.4623,-2.467,-2.4692,-2.4725,-2.4758,-2.479,-2.4816,-2.485,-2.4879,-2.4903,-2.493,-2.4969,-2.5,-2.5025,-2.5062,-2.5072,-2.5087,-2.5093,-2.5084,-2.5082,-2.5097,-2.5096,-2.5106,-2.5106,-2.5106,-2.5106,0,-2.4593,-2.4625,-2.4667,-2.4715,-2.4728,-2.475,-2.4792,-2.4815,-2.4841,-2.4877,-2.4887,-2.4929,-2.4967,-2.5001,-2.5052,-2.5069,-2.5107,-2.5115,-2.5094,-2.5097,-2.5108,-2.5106,-2.5139,-2.5145,-2.5135,-2.5135,-2.5135,0,-2.4602,-2.4624,-2.4675,-2.4695,-2.4718,-2.4751,-2.4775,-2.4809,-2.4833,-2.4879,-2.4897,-2.4937,-2.4971,-2.5032,-2.5067,-2.5106,-2.5115,-2.5124,-2.5121,-2.5111,-2.5114,-2.5112,-2.5115,-2.5123,-2.5123,-2.5123,-2.5123,0,-2.4614,-2.4629,-2.4662,-2.4701,-2.4729,-2.4761,-2.4795,-2.481,-2.485,-2.4876,-2.4915,-2.4942,-2.4994,-2.5034,-2.5077,-2.5103,-2.512,-2.5124,-2.5129,-2.512,-2.5106,-2.5114,-2.5093,-2.5123,-2.5123,-2.5123,-2.5123,-2.5123,-2.4618,-2.464,-2.4678,-2.4715,-2.4743,-2.4774,-2.4798,-2.4827,-2.486,-2.4905,-2.4923,-2.4963,-2.5003,-2.5063,-2.5088,-2.5121,-2.5124,-2.5131,-2.5133,-2.5134,-2.5132,-2.5102,-2.5129,-2.5129,-2.5129,-2.5129,-2.5129,0,-2.4632,-2.4658,-2.4691,-2.4736,-2.4765,-2.4779,-2.4816,-2.4839,-2.4874,-2.4909,-2.4942,-2.4988,-2.5027,-2.5065,-2.5107,-2.5125,-2.5134,-2.5135,-2.5133,-2.5139,-2.5127,-2.5119,-2.5127,-2.5127,-2.5127,-2.5127,-2.5127,-2.5127,-2.4642,-2.4679,-2.4698,-2.475,-2.4776,-2.4815,-2.4836,-2.4864,-2.4892,-2.4942,-2.4974,-2.4999,-2.5036,-2.508,-2.5117,-2.5127,-2.5141,-2.514,-2.5152,-2.514,-2.514,-2.514,-2.5132,-2.5142,-2.5142,-2.5161,-2.5161,-2.5161]},{"header":{"parameterUnit":"m.s-1","parameterCategory":1,"la1":30.2991,"la2":30.254,"lo1":-89.0895,"lo2":-89.0444,"dy":0.0017,"dx":0.0017,"nx":28,"ny":28,"refTime":"2024-04-15T21:00:00:Z","depth":0,"parameterNumber":3,"parameterNumberName":"V-component_of_WINDS"},"data":[0,0,0,0,0,0,0,0,0,0,0,0,0,0,0,0,0,0,0,0,0,0,0,0,0,0,0,0,0,0,0,0,0,0,0,0,0,0,0,0,0,0,0,0,0,0,0,0,0,0,0,0,0,0,0,0,0,0,3.2885,3.2885,0,3.2881,3.2881,3.2881,3.286,3.2859,3.2859,3.2858,3.2852,3.2853,3.2853,0,0,0,0,0,0,0,0,0,0,0,0,0,3.2872,3.2873,3.2885,3.2885,3.2885,3.2881,3.2881,3.2881,3.286,3.2859,3.2859,3.2858,3.2852,3.2853,3.2853,0,0,0,0,0,0,0,0,0,0,0,0,0,3.2874,3.2873,3.2885,3.2874,3.2873,3.2881,3.2881,3.2881,3.286,3.2859,3.2859,3.2858,3.2852,3.2853,3.2853,3.2871,0,0,3.2855,3.2855,0,0,0,0,0,0,0,0,3.2874,3.2875,3.2875,3.2874,3.2873,3.287,3.2875,3.2878,3.286,3.2865,3.2858,3.2857,3.2859,3.2859,3.286,3.2871,3.2871,3.2855,3.2855,3.2855,3.2855,0,0,0,0,0,0,0,3.2874,3.2875,3.2883,3.2875,3.2874,3.2869,3.2868,3.2875,3.2866,3.2864,3.2863,3.2863,3.2858,3.2859,3.2859,3.2871,3.2855,3.2855,3.2855,3.2855,3.2898,3.2899,0,0,0,0,0,0,3.2876,3.2875,3.2883,3.2883,3.2872,3.287,3.2869,3.2872,3.2866,3.2864,3.2863,3.2862,3.2859,3.2859,3.2859,3.2881,3.2855,3.2855,3.2856,3.2897,3.2898,3.2899,0,0,0,0,0,0,3.2875,3.2877,3.2883,3.2879,3.2879,3.2871,3.2874,3.2872,3.2873,3.2865,3.2863,3.2866,3.2858,3.2858,3.2869,3.288,3.2856,3.2856,3.2896,3.2898,3.2899,3.2924,0,0,0,0,0,0,3.2875,3.2877,3.2883,3.2879,3.2879,3.2894,3.2875,3.2873,3.2875,3.2872,3.2867,3.2866,3.2858,3.2868,3.2869,3.288,3.2857,3.2895,3.2897,3.2898,3.2922,3.2926,3.2929,0,0,0,0,0,3.2875,3.289,3.2884,3.2885,3.2888,3.2894,3.2895,3.2885,3.2875,3.2882,3.2877,3.2866,3.2879,3.287,3.2871,3.2882,3.2895,3.2896,3.2898,3.292,3.2925,3.2929,0,0,0,0,0,0,3.2895,3.2889,3.2882,3.2896,3.2896,3.2891,3.2899,3.289,3.2892,3.289,3.2878,3.2877,3.289,3.2887,3.2876,3.29,3.2885,3.2887,3.2901,3.2906,3.2909,3.291,3.2857,0,0,0,0,0,3.2901,3.2907,3.2902,3.2914,3.2915,3.2907,3.291,3.2903,3.2902,3.2901,3.2897,3.2896,3.29,3.2903,3.2906,3.2922,3.2921,3.293,3.2934,3.2937,3.2939,3.2948,3.2953,3.2906,3.2906,3.2906,0,0,3.2913,3.2911,3.2915,3.2919,3.2918,3.2924,3.2907,3.2914,3.2919,3.2902,3.2912,3.2909,3.2907,3.2921,3.2927,3.2919,3.2952,3.2939,3.2942,3.2942,3.2951,3.2955,3.2959,3.2907,3.2907,3.2906,0,0,3.294,3.2938,3.295,3.295,3.2949,3.2944,3.2947,3.2943,3.2941,3.2951,3.2939,3.2944,3.2951,3.2951,3.2952,3.298,3.297,3.2981,3.3,3.3009,3.3013,3.3016,3.3027,3.3031,3.2984,3.2984,3.2984,0,3.2955,3.2965,3.2956,3.2965,3.2967,3.2954,3.2965,3.2965,3.2965,3.2967,3.2958,3.2968,3.2966,3.298,3.2987,3.2988,3.2991,3.2982,3.3013,3.3016,3.3019,3.303,3.3034,3.2985,3.2985,3.2985,3.2985,0,3.2984,3.2992,3.3001,3.3003,3.3006,3.3016,3.3009,3.3013,3.3007,3.3003,3.3014,3.3011,3.3014,3.3017,3.301,3.303,3.3026,3.3016,3.3,3.3025,3.3035,3.3039,3.2987,3.2987,3.2986,3.2986,0,0,3.3022,3.302,3.3024,3.3025,3.3024,3.303,3.304,3.3044,3.3048,3.3049,3.3057,3.3064,3.3055,3.3056,3.3049,3.3058,3.3082,3.3046,3.3046,3.3053,3.3105,3.3113,3.3117,3.3075,3.3076,3.3076,3.3105,0,3.3047,3.3065,3.3058,3.3076,3.3083,3.3071,3.308,3.308,3.3077,3.3083,3.3079,3.3085,3.3072,3.3073,3.3081,3.3077,3.3092,3.3075,3.3083,3.3083,3.3083,3.3122,3.313,3.3157,3.3109,3.3109,3.311,0,3.3079,3.3083,3.3102,3.3102,3.3104,3.3113,3.3117,3.3122,3.3123,3.312,3.3122,3.3114,3.3124,3.3109,3.3123,3.3111,3.3114,3.3113,3.3114,3.3114,3.3098,3.3124,3.3166,3.317,3.3115,3.3115,3.3115,0,3.3106,3.3115,3.3128,3.313,3.3129,3.3136,3.3136,3.3136,3.3139,3.3142,3.3145,3.3149,3.3151,3.3155,3.3148,3.3138,3.3163,3.3147,3.3161,3.3161,3.3166,3.3166,3.321,3.3168,3.3168,3.3168,3.3168,0,3.3135,3.3147,3.3141,3.3148,3.3162,3.3155,3.3168,3.3167,3.3167,3.3175,3.3164,3.3172,3.3162,3.3169,3.3164,3.3176,3.3177,3.3175,3.3174,3.3176,3.3177,3.3178,3.3176,3.3169,3.3169,3.3169,3.3168,0,3.3167,3.3162,3.3176,3.3175,3.3175,3.3185,3.3185,3.3192,3.3189,3.3199,3.3201,3.3196,3.3203,3.3197,3.3203,3.32,3.3217,3.3213,3.3217,3.3216,3.323,3.3229,3.3276,3.3282,3.3237,3.3237,3.3237,0,3.3186,3.3195,3.3196,3.3201,3.3202,3.3209,3.3213,3.3207,3.3211,3.3214,3.3221,3.3228,3.3232,3.3245,3.3241,3.3247,3.3242,3.3259,3.3243,3.3246,3.3243,3.3243,3.3244,3.3262,3.3262,3.3263,3.3263,0,3.3221,3.3219,3.3225,3.3231,3.3237,3.3241,3.3244,3.3248,3.3242,3.3247,3.3255,3.3259,3.3267,3.3274,3.3279,3.3278,3.327,3.3268,3.3272,3.3274,3.3277,3.3276,3.3226,3.3267,3.3267,3.3266,3.3266,3.3266,3.3247,3.3255,3.3258,3.3265,3.3268,3.3271,3.3279,3.3277,3.3284,3.3291,3.3286,3.3296,3.3297,3.3303,3.3304,3.3311,3.3304,3.3309,3.3311,3.3312,3.3315,3.3276,3.3312,3.3312,3.3312,3.3312,3.3312,0,3.3282,3.3283,3.329,3.3296,3.3303,3.3295,3.3299,3.3305,3.3314,3.3316,3.3322,3.3332,3.3339,3.3337,3.3343,3.335,3.3346,3.3351,3.3351,3.3351,3.332,3.3316,3.3354,3.3354,3.3354,3.3354,3.3354,3.3354,3.3301,3.3315,3.3313,3.3329,3.333,3.334,3.3343,3.3346,3.3349,3.336,3.3367,3.3366,3.3367,3.3373,3.338,3.3379,3.3382,3.3389,3.3387,3.3357,3.3353,3.3349,3.3346,3.3389,3.339,3.3418,3.3418,3.3418]}]]